Location: Marcé
(47.5801°N, 0.3280°W)
Time: 07:28:36
(UTC+01:00)

Vanguard 1 - Pass Details

Date: 01 December 2021
Orbit: 652 x 3830 km, 34.2° (Epoch: 16 January)

Event Time Altitude Azimuth Distance (km) Brightness Sun altitude
Exits shadow 01:04:38 18° 99° (E) 5,643 13.8 -64.1°
Drops below altitude 10° 01:08:12 10° 91° (E) 6,085 14.1 -64.0°
Sets 01:12:43 0° 84° (E) 6,749 14.4 -63.8°
